Time,TemperatureF,DewpointF,PressureIn,WindDirection,WindDirectionDegrees,WindSpeedMPH,WindSpeedGustMPH,Humidity,HourlyPrecipIn,Conditions,Clouds,dailyrainin,SoftwareType,DateUTC
2013-08-21 12:00:00,86.0,68.0,30.11,WNW,302,3.0,7.0,56,0.00,,,-99.99,,2013-08-21 16:00:00,
2013-08-21 12:43:00,86.0,68.0,30.11,WNW,302,3.0,7.0,56,0.00,,,-99.99,,2013-08-21 16:43:00,
2013-08-21 12:53:00,86.0,68.0,30.11,WNW,302,3.0,7.0,56,0.00,,,-99.99,,2013-08-21 16:53:00,
2013-08-21 13:00:00,86.0,65.0,30.11,ENE,74,0.0,7.0,50,0.00,,,-99.99,,2013-08-21 17:00:00,
2013-08-21 13:43:00,86.0,65.0,30.11,ENE,74,0.0,7.0,50,0.00,,,-99.99,,2013-08-21 17:43:00,
2013-08-21 13:53:00,86.0,65.0,30.11,ENE,74,0.0,7.0,50,0.00,,,-99.99,,2013-08-21 17:53:00,
2013-08-21 14:00:00,86.0,65.0,30.09,West,272,5.0,11.0,49,0.00,,,-99.99,,2013-08-21 18:00:00,
2013-08-21 14:42:00,86.0,65.0,30.09,West,272,5.0,11.0,49,0.00,,,-99.99,,2013-08-21 18:42:00,
2013-08-21 14:52:00,86.0,65.0,30.09,West,272,5.0,11.0,49,0.00,,,-99.99,,2013-08-21 18:52:00,
2013-08-21 15:00:00,88.0,66.0,30.07,ESE,120,0.0,8.0,49,0.00,,,-99.99,,2013-08-21 19:00:00,
2013-08-21 15:42:00,88.0,66.0,30.07,ESE,120,0.0,8.0,49,0.00,,,-99.99,,2013-08-21 19:42:00,
2013-08-21 15:53:00,88.0,66.0,30.07,ESE,120,0.0,8.0,49,0.00,,,-99.99,,2013-08-21 19:53:00,
2013-08-21 16:00:00,87.0,65.0,30.06,WSW,246,0.0,9.0,47,0.00,,,-99.99,,2013-08-21 20:00:00,
2013-08-21 16:43:00,87.0,65.0,30.06,WSW,246,0.0,9.0,47,0.00,,,-99.99,,2013-08-21 20:43:00,
2013-08-21 16:52:00,87.0,65.0,30.06,WSW,246,0.0,9.0,47,0.00,,,-99.99,,2013-08-21 20:52:00,
2013-08-21 17:00:00,87.0,65.0,30.04,WSW,258,0.0,6.0,47,0.00,,,-99.99,,2013-08-21 21:00:00,
2013-08-21 17:45:00,87.0,65.0,30.04,WSW,258,0.0,6.0,47,0.00,,,-99.99,,2013-08-21 21:45:00,
2013-08-21 17:55:00,87.0,65.0,30.04,WSW,258,0.0,6.0,47,0.00,,,-99.99,,2013-08-21 21:55:00,
2013-08-21 18:00:00,80.0,71.0,30.02,West,268,0.0,5.0,75,0.00,,,-99.99,,2013-08-21 22:00:00,
2013-08-21 18:44:00,80.0,71.0,30.02,West,268,0.0,5.0,75,0.00,,,-99.99,,2013-08-21 22:44:00,
2013-08-21 18:53:00,80.0,71.0,30.02,West,268,0.0,5.0,75,0.00,,,-99.99,,2013-08-21 22:53:00,
2013-08-21 19:00:00,74.0,69.0,30.01,West,268,0.0,0.0,86,0.00,,,-99.99,,2013-08-21 23:00:00,
2013-08-21 19:43:00,74.0,69.0,30.01,West,268,0.0,0.0,86,0.00,,,-99.99,,2013-08-21 23:43:00,
2013-08-21 19:53:00,74.0,69.0,30.01,West,268,0.0,0.0,86,0.00,,,-99.99,,2013-08-21 23:53:00,
2013-08-21 20:00:00,70.0,68.0,30.01,SSE,149,0.0,0.0,96,0.00,,,-99.99,,2013-08-22 00:00:00,
2013-08-21 20:42:00,70.0,68.0,30.01,SSE,149,0.0,0.0,96,0.00,,,-99.99,,2013-08-22 00:42:00,
2013-08-21 20:52:00,70.0,68.0,30.01,SSE,149,0.0,0.0,96,0.00,,,-99.99,,2013-08-22 00:52:00,
2013-08-21 21:00:00,72.0,72.0,30.01,SE,135,0.0,0.0,100,0.00,,,-99.99,,2013-08-22 01:00:00,
2013-08-21 21:42:00,72.0,72.0,30.01,SE,135,0.0,0.0,100,0.00,,,-99.99,,2013-08-22 01:42:00,
2013-08-21 21:52:00,72.0,72.0,30.01,SE,135,0.0,0.0,100,0.00,,,-99.99,,2013-08-22 01:52:00,
2013-08-21 22:00:00,74.0,73.0,30.01,ESE,111,0.0,4.0,96,0.00,,,-99.99,,2013-08-22 02:00:00,
2013-08-21 22:52:00,74.0,73.0,30.01,ESE,111,0.0,4.0,96,0.00,,,-99.99,,2013-08-22 02:52:00,
2013-08-21 23:00:00,72.0,71.0,30.00,SSW,203,0.0,2.0,98,0.00,,,-99.99,,2013-08-22 03:00:00,
2013-08-21 23:45:00,72.0,71.0,30.00,SSW,203,0.0,2.0,98,0.00,,,-99.99,,2013-08-22 03:45:00,
2013-08-21 23:54:00,72.0,71.0,30.00,SSW,203,0.0,2.0,98,0.00,,,-99.99,,2013-08-22 03:54:00,